TimeCST,TemperatureF,Dew PointF,Humidity,Sea Level PressureIn,VisibilityMPH,Wind Direction,Wind SpeedMPH,Gust SpeedMPH,PrecipitationIn,Events,Conditions,WindDirDegrees,DateUTC
12:53 AM,66.9,64.0,90,29.93,10.0,SSW,6.9,-,N/A,,Mostly Cloudy,210,2012-12-24 06:53:00
1:53 AM,68.0,64.0,87,29.93,10.0,SW,9.2,-,N/A,,Mostly Cloudy,220,2012-12-24 07:53:00
2:53 AM,69.1,64.0,84,29.91,10.0,SW,15.0,21.9,N/A,,Mostly Cloudy,220,2012-12-24 08:53:00
3:53 AM,68.0,64.0,87,29.91,10.0,SW,10.4,-,N/A,,Overcast,230,2012-12-24 09:53:00
4:53 AM,66.9,63.0,87,29.92,10.0,WSW,10.4,-,N/A,,Overcast,250,2012-12-24 10:53:00
5:53 AM,66.0,62.1,87,29.93,10.0,WSW,6.9,-,N/A,,Overcast,250,2012-12-24 11:53:00
6:53 AM,64.0,62.1,93,29.94,10.0,West,3.5,-,N/A,,Mostly Cloudy,260,2012-12-24 12:53:00
7:53 AM,62.1,61.0,96,29.96,7.0,WNW,3.5,-,N/A,,Overcast,290,2012-12-24 13:53:00
8:53 AM,64.9,62.1,90,29.97,9.0,NW,3.5,-,N/A,,Mostly Cloudy,310,2012-12-24 14:53:00
9:53 AM,66.9,57.9,73,29.98,10.0,NW,4.6,-,N/A,,Mostly Cloudy,320,2012-12-24 15:53:00
10:53 AM,71.1,55.9,59,29.97,10.0,NNE,4.6,-,N/A,,Scattered Clouds,20,2012-12-24 16:53:00
11:53 AM,72.0,55.9,57,29.94,10.0,Variable,3.5,-,N/A,,Mostly Cloudy,0,2012-12-24 17:53:00
12:53 PM,73.9,55.9,53,29.90,10.0,NNE,4.6,-,N/A,,Scattered Clouds,20,2012-12-24 18:53:00
1:53 PM,73.9,55.9,53,29.87,10.0,Calm,Calm,-,N/A,,Scattered Clouds,0,2012-12-24 19:53:00
2:53 PM,75.0,57.0,53,29.86,10.0,WSW,4.6,-,N/A,,Scattered Clouds,240,2012-12-24 20:53:00
3:53 PM,75.0,57.9,55,29.83,10.0,Calm,Calm,-,N/A,,Mostly Cloudy,0,2012-12-24 21:53:00
4:53 PM,73.9,57.9,57,29.82,10.0,Calm,Calm,-,N/A,,Mostly Cloudy,0,2012-12-24 22:53:00
5:53 PM,70.0,57.9,65,29.81,10.0,ESE,5.8,-,N/A,,Mostly Cloudy,120,2012-12-24 23:53:00
6:53 PM,68.0,59.0,73,29.82,10.0,ESE,6.9,-,N/A,,Scattered Clouds,120,2012-12-25 00:53:00
7:53 PM,66.9,62.1,84,29.81,10.0,ESE,5.8,-,N/A,,Scattered Clouds,120,2012-12-25 01:53:00
8:53 PM,66.0,63.0,90,29.81,9.0,SE,6.9,-,N/A,,Mostly Cloudy,130,2012-12-25 02:53:00
9:53 PM,64.9,63.0,93,29.81,6.0,SE,6.9,-,N/A,,Mostly Cloudy,130,2012-12-25 03:53:00
10:34 PM,64.4,62.6,94,29.78,6.0,SE,5.8,-,N/A,,Mostly Cloudy,140,2012-12-25 04:34:00
10:48 PM,64.4,62.6,94,29.77,5.0,SE,5.8,-,N/A,,Mostly Cloudy,130,2012-12-25 04:48:00
10:53 PM,64.9,63.0,93,29.79,5.0,SE,5.8,-,N/A,,Mostly Cloudy,140,2012-12-25 04:53:00
11:53 PM,66.9,64.9,93,29.77,6.0,SE,4.6,-,0.00,Rain,Light Rain,130,2012-12-25 05:53:00